This is the latest recevied weather packets stored in our database for station/object K9MWD. If no packets are shown the sender has not sent any weather packets the latest 10 day(s).
| Time | Temp. | Humidity | Pressure | Rain* | Wind** | Luminosity | Snow |
|---|---|---|---|---|---|---|---|
| 1777816907 | 19.44° C | 59% | 1022.1 hPa | 0 mm | - | 368 W/m² | - |
| 1777816603 | 18.89° C | 61% | 1021.9 hPa | 0 mm | - | 349 W/m² | - |
| 1777816300 | 18.89° C | 60% | 1021.9 hPa | 0 mm | - | 328 W/m² | - |
| 1777815998 | 18.33° C | 62% | 1021.8 hPa | 0 mm | - | 308 W/m² | - |
| 1777815695 | 18.33° C | 61% | 1022 hPa | 0 mm | - | 290 W/m² | - |
| 1777815393 | 17.78° C | 64% | 1022.1 hPa | 0 mm | - | 270 W/m² | - |
| 1777815090 | 17.78° C | 65% | 1021.9 hPa | 0 mm | - | 251 W/m² | - |
| 1777814785 | 17.22° C | 67% | 1021.8 hPa | 0 mm | - | 231 W/m² | - |
| 1777814482 | 16.67° C | 69% | 1021.8 hPa | 0 mm | - | 214 W/m² | - |
| 1777814179 | 16.67° C | 70% | 1021.9 hPa | 0 mm | - | 196 W/m² | - |
| 1777813876 | 16.11° C | 71% | 1021.9 hPa | 0 mm | - | 179 W/m² | - |
| 1777813574 | 16.11° C | 72% | 1021.6 hPa | 0 mm | - | 162 W/m² | - |
| 1777813272 | 15.56° C | 73% | 1021.9 hPa | 0 mm | - | 147 W/m² | - |
| 1777812969 | 15.56° C | 73% | 1021.6 hPa | 0 mm | - | 132 W/m² | - |
| 1777812666 | 15° C | 75% | 1021.6 hPa | 0 mm | - | 117 W/m² | - |
| 1777812363 | 15° C | 75% | 1021.6 hPa | 0 mm | - | 103 W/m² | - |
| 1777812061 | 14.44° C | 75% | 1021.7 hPa | 0 mm | - | 90 W/m² | - |
| 1777811759 | 14.44° C | 76% | 1021.6 hPa | 0 mm | - | 78 W/m² | - |
| 1777811455 | 13.89° C | 76% | 1021.5 hPa | 0 mm | - | 67 W/m² | - |
| 1777811152 | 13.89° C | 77% | 1021.6 hPa | 0 mm | - | 56 W/m² | - |
| 1777810849 | 13.89° C | 77% | 1021.5 hPa | 0 mm | - | 46 W/m² | - |
| 1777810546 | 13.89° C | 78% | 1021.4 hPa | 0 mm | - | 38 W/m² | - |
| 1777810242 | 13.33° C | 78% | 1021.3 hPa | 0 mm | - | 30 W/m² | - |
| 1777809938 | 12.78° C | 79% | 1021.2 hPa | 0 mm | - | 24 W/m² | - |
| 1777809637 | 12.78° C | 80% | 1021.1 hPa | 0 mm | - | 19 W/m² | - |
* Rain latest hour (hover to see other rain measurements)
** Current wind speed in m/s (hover to see current wind gust speed)